Voltar ao catálogo

BREEZE-M DEB

AtivoHEO
NORAD 38624·DEBRIS·🇷🇺 Russia

Lançado Mar 14, 2008 de Baikonur Cosmodrome

Loading…

Próximas Passagens (próximas 24 horas)

TLE

AtualizadoSource: Space-Track

Época: Sep 14, 2026, 03:18 UTC

1 38624U 08011BX  26257.13808947  .00001918  00000-0  61072-2 0  9992
2 38624  48.3207 152.8305 6498370  91.0368 338.4036  3.16452060170166

Acompanhe BREEZE-M DEB em tempo real com AllMySat

Download on the App Store